Location: Unspecified
(0.0000°N, 0.0000°E)
Time: 05:04:42
(UTC+00:00)

ISS - Pass Details

Date: 09 March 2019
Orbit: 411 x 421 km, 51.6° (Epoch: 21 October)

Event Time Altitude Azimuth Distance (km) Brightness Sun altitude
Rises 08:47:13 0° 355° (N) 2,360 0.0 39.0°
Reaches altitude 10° 08:50:11 10° 24° (NNE) 1,506 -0.6 39.7°
Maximum altitude 08:51:52 13° 54° (NE) 1,333 -0.4 40.2°
Drops below altitude 10° 08:53:34 10° 84° (E) 1,517 0.2 40.6°
Sets 08:56:34 0° 113° (ESE) 2,392 0.9 41.3°
